Phillips, WI

11:38 AM CDT on June 27, 2017 (GMT -0500)
Price County

Weather History for KPBH - February, 2014

Change the Weather History Date:

Thursday, February 6, 2014

  Actual Average Record
Temperature  
Mean Temperature -4 °F -  
Max Temperature 3 °F 25 °F 44 °F (2005)
Min Temperature -12 °F 7 °F -25 °F (2007)
Degree Days  
Heating Degree Days 70    
Moisture  
Dew Point -12 °F    
Average Humidity 73    
Maximum Humidity 84    
Minimum Humidity 56    
Precipitation  
Precipitation 0.00 in - - ()
Sea Level Pressure  
Sea Level Pressure 30.16 in    
Wind  
Wind Speed 4 mph (WSW)    
Max Wind Speed 15 mph    
Max Gust Speed 21 mph    
Visibility 10 miles    
Events      
Averages and records for this station are not official NWS values.
T = Trace of Precipitation, MM = Missing Value Source: NWS Daily Summary

Daily Weather History Graph

Daily Weather History Graph

Search for Another Location

Airport or City:

Trip Planner

Search our weather history database for the weather conditions in past years. The results will help you decide how hot, cold, wet, or windy it might be!

Date:

Astronomy

Feb. 06, 2014 Rise Set
Actual Time 7:16 AM CST 5:15 PM CST
Civil Twilight 6:45 AM CST 5:46 PM CST
Nautical Twilight 6:10 AM CST 6:21 PM CST
Astronomical Twilight 5:35 AM CST 6:56 PM CST
Moon 10:46 AM CST (2/6) 12:32 AM CST (2/6)
Length of Visible Light 11h 01m
Length of Day
9h 58m
Waxing Crescent, 49% of the Moon is Illuminated
Feb 6
Waxing Crescent
Feb 6
First Quarter
Feb 14
Full
Feb 22
Last Quarter
Mar 1
New

Hourly Weather History & Observations

Time (CST) Temp. Windchill Dew Point Humidity Pressure Visibility Wind Dir Wind Speed Gust Speed Precip Events Conditions
12:15 AM -4.9 °F - -8.7 °F 84% 30.28 in 10.0 mi Calm Calm - N/A   Mostly Cloudy
12:35 AM -4.9 °F - -9.0 °F 82% 30.28 in 10.0 mi Calm Calm - N/A   Overcast
12:55 AM -5.8 °F - -9.6 °F 84% 30.27 in 10.0 mi Calm Calm - N/A   Scattered Clouds
1:15 AM -6.0 °F - -9.8 °F 84% 30.27 in 10.0 mi Calm Calm - N/A   Mostly Cloudy
1:35 AM -6.3 °F - -10.3 °F 83% 30.26 in 10.0 mi Calm Calm - N/A   Overcast
1:55 AM -6.3 °F - -10.3 °F 83% 30.26 in 7.0 mi Calm Calm - N/A   Overcast
2:15 AM -6.3 °F - -10.3 °F 83% 30.25 in 10.0 mi Calm Calm - N/A   Overcast
2:35 AM -6.5 °F - -10.8 °F 82% 30.25 in 10.0 mi Calm Calm - N/A   Mostly Cloudy
2:55 AM -7.4 °F -16.3 °F -11.6 °F 82% 30.24 in 10.0 mi WSW 3.5 mph - N/A   Overcast
3:15 AM -7.1 °F -15.9 °F -12.1 °F 79% 30.24 in 10.0 mi West 3.5 mph - N/A   Overcast
3:35 AM -7.6 °F - -12.1 °F 81% 30.23 in 10.0 mi Calm Calm - N/A   Overcast
3:55 AM -8.3 °F - -12.6 °F 81% 30.23 in 10.0 mi Calm Calm - N/A   Scattered Clouds
4:15 AM -8.1 °F - -13.0 °F 79% 30.23 in 7.0 mi Calm Calm - N/A   Mostly Cloudy
4:35 AM -9.2 °F -18.4 °F -13.9 °F 80% 30.23 in 10.0 mi WSW 3.5 mph - N/A   Scattered Clouds
4:55 AM -9.6 °F - -14.3 °F 80% 30.23 in 10.0 mi Calm Calm - N/A   Clear
5:15 AM -9.8 °F - -14.4 °F 80% 30.23 in 10.0 mi Calm Calm - N/A   Clear
5:35 AM -10.7 °F - -15.0 °F 81% 30.23 in 10.0 mi Calm Calm - N/A   Clear
5:55 AM -11.2 °F - -15.5 °F 81% 30.22 in 10.0 mi Calm Calm - N/A   Clear
6:15 AM -12.1 °F -21.7 °F -16.1 °F 83% 30.22 in 10.0 mi WSW 3.5 mph - N/A   Clear
6:35 AM -12.1 °F -21.7 °F -16.2 °F 82% 30.21 in 10.0 mi WSW 3.5 mph - N/A   Clear
6:55 AM -11.9 °F - -16.1 °F 82% 30.21 in 7.0 mi Calm Calm - N/A   Clear
7:15 AM -12.3 °F -21.9 °F -16.4 °F 82% 30.21 in 10.0 mi West 3.5 mph - N/A   Clear
7:35 AM -12.1 °F -21.7 °F -16.6 °F 80% 30.22 in 10.0 mi WSW 3.5 mph - N/A   Clear
7:55 AM -12.1 °F -21.7 °F -16.1 °F 83% 30.22 in 10.0 mi WSW 3.5 mph - N/A   Clear
8:15 AM -11.6 °F -23.4 °F -16.1 °F 80% 30.21 in 10.0 mi WSW 4.6 mph - N/A   Mostly Cloudy
8:35 AM -10.5 °F -24.0 °F -15.0 °F 80% 30.21 in 10.0 mi WSW 5.8 mph - N/A   Mostly Cloudy
8:55 AM -9.4 °F -20.9 °F -14.1 °F 80% 30.21 in 10.0 mi West 4.6 mph - N/A   Clear
9:15 AM -8.3 °F -21.4 °F -13.2 °F 79% 30.20 in 10.0 mi West 5.8 mph - N/A   Clear
9:35 AM -7.1 °F -15.9 °F -12.5 °F 77% 30.20 in 10.0 mi West 3.5 mph - N/A   Clear
9:55 AM -6.2 °F -18.9 °F -11.7 °F 77% 30.20 in 10.0 mi WSW 5.8 mph - N/A   Clear
10:15 AM -5.3 °F -21.7 °F -11.4 °F 75% 30.20 in 10.0 mi WSW 9.2 mph - N/A   Clear
10:35 AM -4.0 °F -19.0 °F -10.8 °F 72% 30.19 in 10.0 mi WSW 8.1 mph - N/A   Clear
10:55 AM -3.5 °F -18.4 °F -10.8 °F 71% 30.19 in 10.0 mi SW 8.1 mph - N/A   Clear
11:15 AM -2.4 °F -17.1 °F -10.7 °F 68% 30.19 in 10.0 mi WSW 8.1 mph - N/A   Clear
11:35 AM -1.1 °F -15.5 °F -10.1 °F 66% 30.18 in 10.0 mi WSW 8.1 mph - N/A   Clear
11:55 AM 0.3 °F -13.8 °F -9.6 °F 63% 30.16 in 10.0 mi West 8.1 mph - N/A   Clear
12:15 PM 1.6 °F -14.2 °F -9.8 °F 59% 30.15 in 10.0 mi WSW 10.4 mph - N/A   Clear
12:35 PM 2.3 °F -14.2 °F -9.6 °F 58% 30.14 in 10.0 mi WSW 11.5 mph - N/A   Clear
12:55 PM 3.2 °F -13.1 °F -9.4 °F 56% 30.14 in 10.0 mi SW 11.5 mph - N/A   Clear
1:15 PM 2.3 °F -14.2 °F -9.4 °F 58% 30.13 in 10.0 mi WSW 11.5 mph - N/A   Clear
1:35 PM 2.3 °F -15.7 °F -9.4 °F 58% 30.12 in 10.0 mi SW 13.8 mph - N/A   Clear
1:55 PM 1.8 °F -17.1 °F -9.4 °F 60% 30.11 in 10.0 mi SW 15.0 mph - N/A   Clear
2:15 PM 1.4 °F -14.5 °F -9.6 °F 60% 30.11 in 10.0 mi SW 10.4 mph - N/A   Clear
2:35 PM 1.4 °F -16.1 °F -9.9 °F 59% 30.10 in 10.0 mi SW 12.7 mph 16.1 mph N/A   Clear
2:55 PM 1.4 °F -16.1 °F -10.3 °F 58% 30.11 in 10.0 mi SW 12.7 mph 20.7 mph N/A   Clear
3:15 PM 1.4 °F -16.1 °F -10.1 °F 59% 30.11 in 10.0 mi SW 12.7 mph 20.7 mph N/A   Clear
3:35 PM 0.5 °F -16.5 °F -10.3 °F 60% 30.10 in 10.0 mi SW 11.5 mph 18.4 mph N/A   Clear
3:55 PM -0.2 °F -19.6 °F -10.7 °F 61% 30.10 in 10.0 mi SW 15.0 mph 20.7 mph N/A   Clear
4:15 PM -0.4 °F -19.2 °F -10.7 °F 62% 30.10 in 10.0 mi SW 13.8 mph - N/A   Clear
4:35 PM -0.8 °F -16.2 °F -11.2 °F 61% 30.10 in 10.0 mi WSW 9.2 mph - N/A   Clear
4:55 PM -1.7 °F -20.0 °F -11.4 °F 63% 30.10 in 10.0 mi WSW 12.7 mph 18.4 mph N/A   Clear
5:15 PM -2.6 °F -19.4 °F -12.1 °F 64% 30.10 in 10.0 mi WSW 10.4 mph 18.4 mph N/A   Clear
5:35 PM -3.5 °F -19.5 °F -12.3 °F 66% 30.10 in 10.0 mi SW 9.2 mph - N/A   Clear
5:55 PM -3.6 °F -17.3 °F -12.5 °F 66% 30.11 in 10.0 mi WSW 6.9 mph - N/A   Clear
6:15 PM -4.7 °F -18.6 °F -13.0 °F 68% 30.10 in 10.0 mi SW 6.9 mph - N/A   Clear
6:35 PM -5.1 °F -17.6 °F -12.8 °F 69% 30.10 in 10.0 mi WSW 5.8 mph - N/A   Clear
6:55 PM -5.3 °F -20.6 °F -12.8 °F 70% 30.10 in 10.0 mi WSW 8.1 mph - N/A   Clear
7:15 PM -5.3 °F -20.6 °F -13.0 °F 69% 30.10 in 10.0 mi WSW 8.1 mph - N/A   Clear
7:35 PM -5.3 °F -22.8 °F -13.0 °F 69% 30.10 in 10.0 mi WSW 10.4 mph - N/A   Clear
7:55 PM -5.8 °F -21.2 °F -13.0 °F 71% 30.10 in 10.0 mi WSW 8.1 mph - N/A   Clear
8:15 PM -6.0 °F -21.5 °F -13.0 °F 72% 30.10 in 10.0 mi WSW 8.1 mph - N/A   Clear
8:35 PM -6.7 °F -22.3 °F -13.5 °F 72% 30.10 in 10.0 mi WSW 8.1 mph - N/A   Clear
8:55 PM -7.2 °F -23.0 °F -13.4 °F 75% 30.09 in 10.0 mi SW 8.1 mph - N/A   Clear
9:15 PM -7.6 °F -24.6 °F -13.0 °F 77% 30.09 in 10.0 mi SW 9.2 mph - N/A   Clear
9:35 PM -7.2 °F -21.7 °F -12.3 °F 79% 30.08 in 10.0 mi SW 6.9 mph - N/A   Mostly Cloudy
9:55 PM -6.7 °F -23.5 °F -12.1 °F 77% 30.08 in 10.0 mi WSW 9.2 mph - N/A   Mostly Cloudy
10:15 PM -6.5 °F -23.3 °F -11.9 °F 77% 30.08 in 10.0 mi WSW 9.2 mph - N/A   Mostly Cloudy
10:35 PM -6.0 °F -22.6 °F -11.4 °F 77% 30.08 in 10.0 mi SW 9.2 mph - N/A   Overcast
10:55 PM -6.3 °F -21.9 °F -11.7 °F 77% 30.07 in 10.0 mi WSW 8.1 mph - N/A   Mostly Cloudy
11:15 PM -6.7 °F -23.5 °F -11.7 °F 79% 30.07 in 10.0 mi SW 9.2 mph - N/A   Clear
11:35 PM -7.4 °F -23.2 °F -12.3 °F 79% 30.06 in 10.0 mi SW 8.1 mph - N/A   Clear
11:55 PM -7.8 °F -22.3 °F -12.3 °F 81% 30.06 in 10.0 mi SW 6.9 mph - N/A   Clear